Regional Weather Roundup
Issued by NWS Newport/Morehead, NC

Current Version | Previous Version | Graphics & Text | Print | Product List | Glossary Off
Versions: 1 2 3 4 5 6 7 8 9 10 11 12 13 14 15 16 17 18 19 20 21 22 23 24 25 26 27 28 29 30 31 32 33 34 35 36 37 38 39 40 41 42 43 44 45 46 47 48 49 50

000
ASUS42 KMHX 221726
RWRMHX
WEATHER ROUNDUP FOR EASTERN NORTH CAROLINA
NATIONAL WEATHER SERVICE NEWPORT/MOREHEAD CITY NC
100 PM EDT SAT JUL 22 2017

NOTE: "FAIR" INDICATES FEW OR NO CLOUDS BELOW 12,000 FEET
WITH NO SIGNIFICANT WEATHER AND/OR OBSTRUCTIONS TO VISIBILITY

NCZ015>017-031-032-045>047-102-103-221800-
NORTH COAST

CITY           SKY/WX    TMP DP  RH WIND       PRES   REMARKS
EDENTON        SUNNY     91  80  70 CALM      29.95S HX 110
ELIZABETH CITY SUNNY     90  81  74 SW12      29.93  HX 109
KITTY HAWK     SUNNY     91  75  60 SW7G18    29.92F HX 102
MANTEO         MOSUNNY   90  77  65 W13       29.94F HX 103

$$

NCZ045>047-081-094-103-104-221800-
CENTRAL COAST

CITY           SKY/WX    TMP DP  RH WIND       PRES   REMARKS
FRISCO         SUNNY     84  75  74 SW13      29.99F

$$

NCZ095-097-098-100-101-221800-
SOUTHERN COAST

CITY           SKY/WX    TMP DP  RH WIND       PRES   REMARKS
BEAUFORT       SUNNY     86  77  74 SW23G29   30.00F
CEDAR ISLAND   NOT AVBL
JACKSONVILLE   MOSUNNY   91  77  63 SW10G17   29.99F HX 104
PINEY ISLAND   SUNNY    N/A N/A N/A SW14G23   29.98F
WILMINGTON     SUNNY     90  74  59 S14       30.00F


$$

NCZ011>013-027>030-043-044-078>080-089-090>093-098-221800-
COASTAL PLAIN

CITY           SKY/WX    TMP DP  RH WIND       PRES   REMARKS
AHOSKIE          N/A     90  78  67 S5        29.93S HX 104
CLINTON        SUNNY     91  76  62 S7        29.99F HX 103
ELIZABETHTOWN  NOT AVBL
GOLDSBORO      MOSUNNY   93  78  61 SW10      29.96F HX 108
GREENVILLE     SUNNY     93  75  55 SW10G21   29.97F HX 104
HAVELOCK       SUNNY     91  76  61 SW17      30.00S HX 103
KENANSVILLE    SUNNY     93  73  52 SW13G20   29.98F HX 102
KINSTON        SUNNY     93  75  55 SW13      29.98F HX 104
NEW BERN       MOSUNNY   91  77  63 SW12G18   29.99F HX 104
RICHLANDS      MOSUNNY   91  77  63 S13       30.00F HX 104
ROCKY MOUNT    SUNNY     94  78  60 S9        29.95F HX 110
WASHINGTON     SUNNY     92  77  62 SW12      29.95F HX 105
WHITEVILLE     MOSUNNY   91  75  59 SW6       30.00F HX 101

$$

AMZ130-135-150-152-154-156-158-170-250-252-270-ANZ085-086-088-633-658-670-221800-
MARINE OBSERVATIONS

STATION/POSITION TIME  TEMP    WIND        PRES    WAVE   SWELL
                       AIR SEA DIR/SP/G            HT/PER HT/PER
                 (UTC) (F)     (DEG/KT/KT) (MB)    (FT/S) (FT/S)
CHESAPEAKE LIGHT NOT AVBL
64 E VA BEACH    1650   80 80  210/ 14/ 16 1013.5    4/ 5   2/ 9
DUCK             1700   86 58  220/ 12/ 15 1013.0
2 E DUCK         1700      63                N/A     1/13
OREGON INLET     1700   85 84  200/ 20/ 24 1013.8
13E OREGON INLT  1648      76                N/A     3/ 4   2/ 8
HATTERAS CG      1700   82 77  220/ 11/ 16 1015.3
DIAMOND BUOY     1650   83 83  230/ 19/ 23 1015.5    4/ 9   2/ 9
CAPE LOOKOUT     1700   84     210/ 15/ 19 1015.7
BEAUFORT LAB     1700   84 81  220/ 12/ 15 1015.3
30 SE NEW RVR IN 1708   81 81  240/ 14/ 17 1016.8
30 SE NEW RVR IN 1643      81                N/A     4/ 9   2/11
27 SE WRIGHTSVLE 1708   82 82  220/ 14/ 17 1016.7
5 SE WRIGHTSVLE  1708   81 80  200/ 10/ 16 1016.3
225 S CAPE HAT   1650   83 84  220/ 12/ 14 1019.4    4/ 9   3/ 9
41 SE CHARLESTON 1710   83 84  220/  8/ 12 1017.0

$$



USA.gov is the U.S. government's official web portal to all federal, state and local government web resources and services.